Airfield :
LOGIN :

Register | Disclaimer

   EN    FR    IT 

 










Legend :    VFR   Marginal VFR   IFR   Intensive IFR   Very Intensive IFR
Visi :
Ceiling :
>= 8 km
>= 3000ft
5 to 8 km
1000 to 3000 ft
1500m to 5 km
500 to 1000 ft
800 to 1500m
200 to 500 ft
< 800m
< 200 ft
Symbols :   Thunderstorms  Fog  Heavy snow  Heavy precipitations  Wind > 20 kt
SIGMETs :     Misc.  Thunderstorms  Icing  Turbulence  Mountain Waves  Volcanic Ashes






- Airport Elevation : 396 ft


LFOZ - Orléans St Denis

CURRENT METAR :
  • 170330Z AUTO 23012KT 9999 BKN013/// OVC021/// ///TCU 10/09 Q1007

EXPIRED METARs :
  • 170300Z AUTO 23012KT 9999 BKN014 BKN020 OVC046 10/09 Q1007
  • 170230Z AUTO 23012KT 9999 SCT015/// BKN023/// BKN048/// ///TCU 10/09 Q1007
  • 170200Z AUTO 23012KT 9999 BKN015 OVC024 11/09 Q1007
  • 170130Z AUTO 22012KT 9999 BKN017 BKN025 BKN040 11/09 Q1006
  • 170100Z AUTO 22013KT 9999 FEW015 BKN024 BKN033 11/09 Q1006

TAF N/A



MET'MAP, your aeronautical weather chart ! - Copyright ORBIFLY December 2007 - Disclaimer

ORBIFLY MET'MAP TEAM :

Programming & Development : Alexandra Zaïnal
Concept & original design : Baudouin d'Aumeries
Assistance for programming : Marc-Olivier Méhu
Technical & hardware support : Manuel Goepfert

Contact : metmap@orbifly.com




SOURCES & CREDITS :

   NOAA